カタログに戻る

THORAD AGENA D DEB

運用中LEO
NORAD 22533·DEBRIS·🇺🇸 United States

打ち上げ Apr 8, 1970 から Vandenberg Space Force Base

Loading…

次のパス (今後24時間)

TLE

最新Source: Space-Track

元期: Sep 14, 2026, 00:11 UTC

1 22533U 70025QP  26257.00810081  .00000896  00000-0  10330-2 0  9991
2 22533 100.1039  86.0135 0004872  24.9223 128.7704 13.72450548665495

AllMySatでTHORAD AGENA D DEBをリアルタイム追跡

Download on the App Store